Regional Weather Roundup
Issued by NWS

Home | Current Version | Previous Version | Text Only | Print | Product List | Glossary On
Versions: 1 2 3 4 5 6 7 8 9 10 11 12 13 14 15 16 17 18 19 20 21 22 23 24 25 26 27 28 29 30 31 32 33 34 35 36 37 38 39 40 41 42 43 44 45 46 47 48 49 50
000
ASUS43 KMKX 042300
RWRWI

WISCONSIN REGIONAL WEATHER ROUNDUP
NATIONAL WEATHER SERVICE MILWAUKEE/SULLIVAN WI
600 PM CDT TUE AUG 04 2015

NOTE: "FAIR" INDICATES FEW OR NO CLOUDS BELOW 12,000 FEET WITH NO
SIGNIFICANT WEATHER AND/OR OBSTRUCTIONS TO VISIBILITY.

WIZ001-002-006>008-014>016-023>028-050000-
NORTHWEST WISCONSIN

CITY           SKY/WX    TMP DP  RH WIND       PRES   REMARKS
SUPERIOR ARPT  SUNNY     70  54  56 E7        29.98S
ASHLAND        PTSUNNY   68  54  60 NE6       30.00R
HAYWARD        PTSUNNY   74  51  44 N5        29.98R
SIREN          PTSUNNY   76  51  40 N7        29.98S
CUMBERLAND     MOSUNNY   72  54  53 NW6       29.98S
RICE LAKE      PTSUNNY   76  52  43 W3        29.99S
CHETEK         PTSUNNY   75  56  51 CALM      29.97S
LADYSMITH      PTSUNNY   73  53  50 W7        30.00S
EAU CLAIRE     NOT AVBL
MENOMONIE      MOSUNNY   78  49  35 NW6       29.97S
NEW RICHMOND   MOSUNNY   78  51  39 NW8       29.98S
OSCEOLA        MOSUNNY   78  52  39 NW7       29.99S
$$

WIZ003>005-009-010-017-018-050000-
NORTH CENTRAL WISCONSIN

CITY           SKY/WX    TMP DP  RH WIND       PRES   REMARKS
MANITOWISH WTR MOSUNNY   66  51  57 N7        29.99S
ARBOR VITAE    PTSUNNY   71  54  55 N9        29.99S
WOODRUFF       PTSUNNY   71  54  55 N9        29.99S
RHINELANDER    PTSUNNY   70  51  51 VRB5      29.99S
EAGLE RIVER    MOSUNNY   66  47  49 N10       29.99R
LAND O LAKES   PTSUNNY   68  48  48 NW8G16    30.00S
PHILLIPS       CLOUDY    69  53  58 NW3       29.98S
TOMAHAWK       CLOUDY    68  52  56 N3        29.99R
MEDFORD        CLOUDY    70  53  54 W5        29.99S
MERRILL        NOT AVBL
$$

WIZ029-030-035-036-043>047-050000-
CENTRAL WISCONSIN

CITY           SKY/WX    TMP DP  RH WIND       PRES   REMARKS
WAUSAU         CLOUDY    73  51  46 NW9       29.96S
MOSINEE        PTSUNNY   72  54  53 NW8       29.99S
MARSHFIELD     PTSUNNY   75  50  41 NW12      29.98S
STEVENS POINT  CLOUDY    73  51  46 NW10      29.98S
WAUPACA        MOSUNNY   78  51  39 NW9       29.96S
WAUTOMA        NOT AVBL
WISC RAPIDS    MOSUNNY   78  50  37 NW10      29.98S
CAMP DOUGLAS   NOT AVBL
$$

WIZ011>013-019>022-031-037>040-048>050-050000-
NORTHEAST WISCONSIN

CITY           SKY/WX    TMP DP  RH WIND       PRES   REMARKS
ANTIGO         CLOUDY    70  52  53 N9        29.98S
SHAWANO        PTSUNNY   75  52  44 W6        29.95S
OCONTO         CLOUDY    73  56  55 CALM      29.92S
STURGEON BAY   PTSUNNY   68  55  64 E7        29.97S
GREEN BAY      MOSUNNY   75  54  47 NW7       29.94S
MANITOWOC      NOT AVBL
APPLETON       PTSUNNY   73  48  40 NW9       29.96S
CLINTONVILLE   PTSUNNY   75  48  38 NW8       29.95S
OSHKOSH        SUNNY     76  52  43 NW13      29.95S
$$

WIZ032>034-041-042-053>061-050000-
SOUTHWEST WISCONSIN

CITY           SKY/WX    TMP DP  RH WIND       PRES   REMARKS
LA CROSSE      MOSUNNY   81  52  36 NW7       29.96S HX  80
SPARTA         SUNNY     79  47  31 NW8       29.98S
VIROQUA        MOSUNNY   76  54  46 NW5       29.99F
BOSCOBEL       PTSUNNY   82  53  36 N6        29.96S HX  81
PRAIRIE DU CHI PTSUNNY   78  48  34 N6        29.96F
PLATTEVILLE    PTSUNNY   76  54  46 N3        29.97F
$$

WIZ056-057-062-063-064-067-068-050000-
SOUTH CENTRAL WISCONSIN

CITY           SKY/WX    TMP DP  RH WIND       PRES   REMARKS
REEDSBURG      MOSUNNY   78  51  39 NW7       29.96F
BARABOO/DELLS  MOSUNNY   78  46  31 NW9       29.96F
LONE ROCK      NOT AVBL
MINERAL POINT  PTSUNNY   77  50  38 NW6       29.98S
MADISON        PTSUNNY   78  54  43 N5        29.96F
MIDDLETON      PTSUNNY   79  49  34 NW8       29.97F
WATERTOWN      MOSUNNY   77  56  47 W5        29.96S
MONROE         PTSUNNY   77  52  41 NW5       29.97F
JANESVILLE     MOSUNNY   79  52  38 W6        29.96F
$$

WIZ051-052-058>065-066-070>072-050000-
SOUTHEAST WISCONSIN

CITY           SKY/WX    TMP DP  RH WIND       PRES   REMARKS
MILWAUKEE      PTSUNNY   79  49  34 W12       29.95F
WAUKESHA       MOSUNNY   75  50  41 NW7       29.97F
MILWAUKEE/TIMM NOT AVBL
RACINE         PTSUNNY   73  56  54 E9        29.97S
BURLINGTON     PTSUNNY   76  49  37 NW7       29.97S
KENOSHA        PTSUNNY   76  54  46 NW7       29.96S
FOND DU LAC    SUNNY     78  52  40 NW13      29.95F
SHEBOYGAN      SUNNY     77  54  44 NW13G18   29.94F
WEST BEND      PTSUNNY   75  46  35 W10       29.96S
JUNEAU         PTSUNNY   76  53  44 W8        29.97S
$$

LSZ147-162-050000-
LAKE SUPERIOR

STATION/POSITION TIME  TEMP    WIND        PRES    WAVE
                       AIR SEA DIR/SP/G            HT/PER
                 (UTC) (F)     (DEG/KT/KT) (MB)    (FT/S)
W MID LAKE BUOY  2150   58 58   80/  4/  6 1016.1F   0
DEVILS ISLAND    2200   65      20/  1/  2 1015.9R
PORT WING        2200   70      40/  8/  9 1015.6
SAXON HARBOR     2200   67      50/  7/  8 1015.2
$$

LMZ867-665-643>646-050000-
LAKE MICHIGAN

STATION/POSITION TIME  TEMP    WIND        PRES    WAVE
                       AIR SEA DIR/SP/G            HT/PER
                 (UTC) (F)     (DEG/KT/KT) (MB)    (FT/S)
CHAMBERS ISLAND  2200   66      40/  5/  8 1013.9S
N MID LAKE BUOY  2150   63 70  300/  2/  4 1014.1R   0
NORTHPORT PIER   2200   68      80/  4/  6 1013.9F
SISTER BAY       2218   70      50/  2/  7   N/A
ALGOMA LAKESHORE 2227           80/  5/  7   N/A
KEWAUNEE LAKESHO 2200   65     180/  9/ 11 1013.4S
SHEBOYGAN LAKESH 2200   76     320/ 10/ 12 1014.1S
PORT WASHINGTON  2200   81     290/  9/ 13 1014.2
ATWATER BUOY     2200   67 55  350/  6/  6 1015.6F
MILWAUKEE LAKESH 2200   77     290/  5/  8   N/A
KENOSHA   LAKESH 2200   77     320/  9/ 16 1013.9F
$$

TC  - TEMPERATURE IN CELSIUS
VSB - VISIBILITY IN STATUTE MILES
WCI - WIND CHILL INDEX
HX  - HEAT INDEX



USA.gov is the U.S. government's official web portal to all federal, state and local government web resources and services.